NOAA 6 [-]

Last updated on Fri Dec 29 2023 00:02:19 GMT+0000 (Coordinated Universal Time)

1 11416U 79057A 23361.67803885 .00000640 00000+0 24378-3 0 9997 2 11416 98.6415 18.0242 0011087 54.4985 305.7233 14.34290100321527

Satellite not in orbit

NOAA 6 [-]